Вернуться в каталог

METEOR 2-5 DEB

АктивенPO
NORAD 38534·DEBRIS·🇷🇺 Russia

Запущен Oct 31, 1979 с Plesetsk Cosmodrome

Loading…

Ближайшие Пролёты (ближайшие 24 часа)

TLE

УстаревающийSource: Space-Track

Эпоха: Sep 10, 2026, 02:21 UTC

1 38534U 79095CB  26253.09839657  .00001076  00000-0  32252-3 0  9999
2 38534  81.2154  35.7954 0015972  67.6895 292.5985 14.42180356629094

Отслеживайте METEOR 2-5 DEB в реальном времени с AllMySat

Download on the App Store